La Push, WA

4:36 PM PDT on September 26, 2016 (GMT -0700)
Quillayute

Weather History for KUIL - August, 2012

Change the Weather History Date:

Wednesday, August 22, 2012

  Actual Average Record
Temperature  
Mean Temperature 60 °F 59 °F  
Max Temperature 68 °F 69 °F 87 °F (1988)
Min Temperature 51 °F 50 °F 38 °F (1973)
Degree Days  
Heating Degree Days 5 6  
Month to date heating degree days 120  
Since 1 June heating degree days 608  
Since 1 July heating degree days 314  
Cooling Degree Days 0 0  
Month to date cooling degree days 0  
Year to date cooling degree days 11  
Since 1 June cooling degree days 10  
Growing Degree Days 10 (Base 50)    
Moisture  
Dew Point 51 °F    
Average Humidity 79    
Maximum Humidity 94    
Minimum Humidity 41    
Precipitation  
Precipitation T in 0.08 in 3.22 in (2011)
Month to date precipitation 1.59  
Year to date precipitation 55.82  
Sea Level Pressure  
Sea Level Pressure 30.11 in    
Wind  
Wind Speed 3 mph (WNW)    
Max Wind Speed 13 mph    
Max Gust Speed 17 mph    
Visibility 8 miles    
Events Rain    
T = Trace of Precipitation, MM = Missing Value Source: NWS Daily Summary

Daily Weather History Graph

Daily Weather History Graph

Search for Another Location

Airport or City:

Trip Planner

Search our weather history database for the weather conditions in past years. The results will help you decide how hot, cold, wet, or windy it might be!

Date:

Astronomy

Aug. 22, 2012 Rise Set
Actual Time 6:23 AM PDT 8:17 PM PDT
Civil Twilight 5:50 AM PDT 8:50 PM PDT
Nautical Twilight 5:09 AM PDT 9:31 PM PDT
Astronomical Twilight 4:24 AM PDT 10:15 PM PDT
Moon 12:41 PM PDT (8/22) 10:29 PM PDT (8/22)
Length of Visible Light 15h 00m
Length of Day
13h 53m
Waxing Crescent, 30% of the Moon is Illuminated
Aug 22
Waxing Crescent
Aug 24
First Quarter
Aug 31
Full
Sep 8
Last Quarter
Sep 15
New

Hourly Weather History & Observations

Time (PDT) Temp. Dew Point Humidity Pressure Visibility Wind Dir Wind Speed Gust Speed Precip Events Conditions
12:29 AM 57.2 °F 53.6 °F 88% 30.08 in 8.0 mi Calm Calm - N/A   Overcast
12:46 AM 57.2 °F 53.6 °F 88% 30.08 in 8.0 mi Calm Calm - N/A   Overcast
12:53 AM 57.0 °F 54.0 °F 89% 30.09 in 8.0 mi Calm Calm - N/A   Overcast
1:53 AM 55.9 °F 52.0 °F 87% 30.09 in 8.0 mi Calm Calm - N/A   Overcast
2:09 AM 55.4 °F 51.8 °F 88% 30.09 in 8.0 mi Calm Calm - N/A   Overcast
2:35 AM 55.4 °F 53.6 °F 94% 30.09 in 8.0 mi Calm Calm - N/A   Overcast
2:46 AM 55.4 °F 51.8 °F 88% 30.09 in 7.0 mi Calm Calm - N/A   Overcast
2:53 AM 55.0 °F 52.0 °F 89% 30.10 in 7.0 mi Calm Calm - N/A   Mostly Cloudy
3:53 AM 54.0 °F 51.1 °F 90% 30.10 in 8.0 mi Calm Calm - N/A   Overcast
4:53 AM 55.0 °F 52.0 °F 89% 30.10 in 8.0 mi Calm Calm - N/A   Overcast
5:07 AM 55.4 °F 51.8 °F 88% 30.10 in 7.0 mi Calm Calm - N/A   Overcast
5:11 AM 55.4 °F 51.8 °F 88% 30.10 in 7.0 mi Calm Calm - N/A   Overcast
5:27 AM 55.4 °F 51.8 °F 88% 30.10 in 8.0 mi Calm Calm - N/A   Overcast
5:36 AM 55.4 °F 51.8 °F 88% 30.10 in 8.0 mi Calm Calm - N/A   Overcast
5:44 AM 55.4 °F 51.8 °F 88% 30.10 in 5.0 mi Calm Calm - 0.00 in Rain Light Rain
5:53 AM 55.0 °F 52.0 °F 89% 30.10 in 5.0 mi Calm Calm - 0.00 in Rain Light Rain
6:03 AM 55.4 °F 51.8 °F 88% 30.10 in 8.0 mi Calm Calm - 0.00 in   Overcast
6:11 AM 55.4 °F 51.8 °F 88% 30.10 in 8.0 mi Calm Calm - 0.00 in   Overcast
6:53 AM 54.0 °F 52.0 °F 93% 30.11 in 5.0 mi Calm Calm - 0.00 in   Overcast
7:53 AM 55.9 °F 52.0 °F 87% 30.12 in 7.0 mi Calm Calm - N/A   Overcast
8:00 AM 55.4 °F 51.8 °F 88% 30.11 in 7.0 mi Calm Calm - N/A   Overcast
8:53 AM 57.0 °F 53.1 °F 87% 30.12 in 6.0 mi Calm Calm - N/A   Overcast
9:53 AM 59.0 °F 53.1 °F 81% 30.12 in 9.0 mi Calm Calm - N/A   Overcast
10:53 AM 60.8 °F 53.6 °F 77% 30.12 in 10.0 mi Calm Calm - N/A   Overcast
11:16 AM 64.4 °F 53.6 °F 68% 30.12 in 10.0 mi Calm Calm - N/A   Mostly Cloudy
11:26 AM 62.6 °F 53.6 °F 72% 30.12 in 10.0 mi West 6.9 mph - N/A   Mostly Cloudy
11:53 AM 64.0 °F 52.0 °F 65% 30.13 in 10.0 mi West 8.1 mph - N/A   Overcast
12:53 PM 66.9 °F 50.0 °F 54% 30.13 in 10.0 mi West 6.9 mph - N/A   Mostly Cloudy
1:53 PM 68.0 °F 50.0 °F 52% 30.13 in 10.0 mi West 8.1 mph - N/A   Mostly Cloudy
2:53 PM 66.9 °F 50.0 °F 54% 30.12 in 10.0 mi West 9.2 mph - N/A   Scattered Clouds
3:53 PM 66.0 °F 48.9 °F 54% 30.13 in 10.0 mi Variable 6.9 mph - N/A   Clear
4:53 PM 66.0 °F 48.0 °F 52% 30.13 in 10.0 mi NW 9.2 mph - N/A   Clear
5:53 PM 63.0 °F 50.0 °F 63% 30.12 in 10.0 mi WNW 8.1 mph - N/A   Clear
6:53 PM 62.1 °F 48.0 °F 60% 30.10 in 10.0 mi NW 8.1 mph - N/A   Clear
7:53 PM 60.1 °F 48.0 °F 64% 30.10 in 10.0 mi NW 3.5 mph - N/A   Clear
8:53 PM 55.9 °F 48.9 °F 77% 30.10 in 10.0 mi Calm Calm - N/A   Clear
9:53 PM 52.0 °F 48.0 °F 86% 30.10 in 10.0 mi Calm Calm - N/A   Scattered Clouds
10:45 PM 51.8 °F 48.2 °F 88% 30.09 in 10.0 mi Calm Calm - N/A   Mostly Cloudy
10:53 PM 52.0 °F 48.0 °F 86% 30.09 in 10.0 mi Calm Calm - N/A   Mostly Cloudy
11:53 PM 53.1 °F 48.9 °F 86% 30.10 in 10.0 mi Calm Calm - N/A   Overcast